TimeEST,TemperatureF,Dew PointF,Humidity,Sea Level PressureIn,VisibilityMPH,Wind Direction,Wind SpeedMPH,Gust SpeedMPH,PrecipitationIn,Events,Conditions,WindDirDegrees,DateUTC
12:52 AM,30.9,18.0,59,30.52,10.0,NNE,6.9,-,N/A,,Clear,20,2012-03-10 05:52:00
1:52 AM,30.9,18.0,59,30.52,10.0,NNE,8.1,-,N/A,,Clear,30,2012-03-10 06:52:00
2:52 AM,30.9,17.1,57,30.52,10.0,ENE,6.9,-,N/A,,Clear,60,2012-03-10 07:52:00
3:52 AM,30.0,17.1,59,30.51,10.0,ENE,5.8,-,N/A,,Clear,60,2012-03-10 08:52:00
4:52 AM,28.9,17.1,61,30.51,10.0,NNE,6.9,-,N/A,,Clear,30,2012-03-10 09:52:00
5:52 AM,28.9,17.1,61,30.54,10.0,East,4.6,-,N/A,,Scattered Clouds,80,2012-03-10 10:52:00
6:52 AM,28.0,17.1,63,30.53,10.0,ENE,6.9,-,N/A,,Scattered Clouds,70,2012-03-10 11:52:00
7:52 AM,30.0,18.0,61,30.57,10.0,East,3.5,-,N/A,,Scattered Clouds,100,2012-03-10 12:52:00
8:52 AM,32.0,19.0,59,30.56,10.0,ESE,9.2,-,N/A,,Partly Cloudy,120,2012-03-10 13:52:00
9:52 AM,35.1,19.9,54,30.55,10.0,SSE,8.1,-,N/A,,Partly Cloudy,160,2012-03-10 14:52:00
10:52 AM,39.9,21.0,47,30.55,10.0,South,8.1,17.3,N/A,,Partly Cloudy,170,2012-03-10 15:52:00
11:52 AM,42.1,19.0,40,30.53,10.0,South,8.1,-,N/A,,Clear,190,2012-03-10 16:52:00
12:52 PM,45.0,18.0,34,30.51,10.0,SE,10.4,-,N/A,,Clear,130,2012-03-10 17:52:00
1:52 PM,48.9,19.0,31,30.48,10.0,SSE,4.6,-,N/A,,Clear,150,2012-03-10 18:52:00
2:52 PM,51.1,18.0,27,30.47,10.0,SW,9.2,-,N/A,,Clear,230,2012-03-10 19:52:00
3:52 PM,52.0,21.0,30,30.45,10.0,South,8.1,-,N/A,,Clear,170,2012-03-10 20:52:00
4:52 PM,53.1,24.1,32,30.43,10.0,SSE,5.8,-,N/A,,Clear,150,2012-03-10 21:52:00
5:52 PM,51.1,23.0,33,30.41,10.0,ESE,6.9,-,N/A,,Clear,120,2012-03-10 22:52:00
6:52 PM,46.9,21.9,37,30.40,10.0,SSE,5.8,-,N/A,,Clear,160,2012-03-10 23:52:00
7:52 PM,45.0,21.9,40,30.39,10.0,SE,4.6,-,N/A,,Clear,130,2012-03-11 00:52:00
8:52 PM,45.0,19.9,37,30.40,10.0,South,3.5,-,N/A,,Clear,170,2012-03-11 01:52:00
9:52 PM,43.0,21.0,42,30.39,10.0,South,5.8,-,N/A,,Clear,180,2012-03-11 02:52:00
10:52 PM,43.0,21.0,42,30.38,10.0,Calm,Calm,-,N/A,,Clear,0,2012-03-11 03:52:00
11:52 PM,37.9,21.9,53,30.38,10.0,SSE,3.5,-,N/A,,Clear,150,2012-03-11 04:52:00